Chapel Hill, NC

5:16 PM EDT on April 28, 2017 (GMT -0400)
Williams

Weather History for KIGX - October, 2012

Change the Weather History Date:

Tuesday, October 2, 2012

  Actual Average Record
Temperature  
Mean Temperature 74 °F -  
Max Temperature 86 °F 75 °F 91 °F (1986)
Min Temperature 63 °F 51 °F 37 °F (1984)
Cooling Degree Days 8    
Growing Degree Days 24 (Base 50)    
Moisture  
Dew Point 69 °F    
Average Humidity 91    
Maximum Humidity 100    
Minimum Humidity 69    
Precipitation  
Precipitation 0.37 in - - ()
Sea Level Pressure  
Sea Level Pressure 29.87 in    
Wind  
Wind Speed 2 mph (ENE)    
Max Wind Speed 5 mph    
Max Gust Speed -    
Visibility 6 miles    
Events Fog , Rain    
Averages and records for this station are not official NWS values.
T = Trace of Precipitation, MM = Missing Value Source: NWS Daily Summary

Daily Weather History Graph

Daily Weather History Graph

Search for Another Location

Airport or City:

Trip Planner

Search our weather history database for the weather conditions in past years. The results will help you decide how hot, cold, wet, or windy it might be!

Date:

Astronomy

Oct. 02, 2012 Rise Set
Actual Time 7:12 AM EDT 6:57 PM EDT
Civil Twilight 6:46 AM EDT 7:23 PM EDT
Nautical Twilight 6:17 AM EDT 7:52 PM EDT
Astronomical Twilight 5:47 AM EDT 8:22 PM EDT
Moon 8:16 PM EDT (10/2) 9:31 AM EDT (10/2)
Length of Visible Light 12h 36m
Length of Day
11h 45m
Waning Gibbous, 94% of the Moon is Illuminated
Oct 2
Waning Gibbous
Oct 8
Last Quarter
Oct 15
New
Oct 21
First Quarter
Oct 29
Full

Hourly Weather History & Observations

Time (EDT) Temp. Heat Index Dew Point Humidity Pressure Visibility Wind Dir Wind Speed Gust Speed Precip Events Conditions
12:56 AM 63.0 °F - 61.0 °F 93% 29.87 in 10.0 mi Calm Calm - N/A   Overcast
1:54 AM 64.4 °F - 62.6 °F 94% 29.87 in 1.8 mi ENE 4.6 mph - 0.06 in Rain Heavy Rain
2:06 AM 64.4 °F - 62.6 °F 94% 29.87 in 3.0 mi Variable 3.5 mph - 0.00 in Rain Light Rain
2:28 AM 64.4 °F - 62.6 °F 94% 29.86 in 1.8 mi NE 3.5 mph - 0.01 in   Overcast
2:43 AM 64.4 °F - 62.6 °F 94% 29.85 in 0.8 mi NE 4.6 mph - 0.01 in   Mist
2:51 AM 64.4 °F - 62.6 °F 94% 29.85 in 0.5 mi NE 4.6 mph - 0.01 in Fog , Rain Light Rain
2:56 AM 64.9 °F - 63.0 °F 93% 29.84 in 0.8 mi NE 4.6 mph - 0.03 in Rain Light Rain
3:06 AM 64.4 °F - 64.4 °F 100% 29.85 in 1.2 mi NE 4.6 mph - 0.01 in Rain Light Rain
3:40 AM 66.2 °F - 64.4 °F 94% 29.84 in 3.0 mi ENE 4.6 mph - 0.08 in Rain Light Rain
3:54 AM 66.0 °F - 64.9 °F 96% 29.83 in 1.8 mi ENE 4.6 mph - 0.08 in Rain Light Rain
4:11 AM 66.2 °F - 64.4 °F 94% 29.84 in 0.8 mi Calm Calm - 0.00 in   Mist
4:20 AM 66.2 °F - 64.4 °F 94% 29.84 in 0.5 mi Calm Calm - 0.00 in Fog Fog
4:56 AM 66.9 °F - 64.9 °F 93% 29.83 in 0.5 mi Calm Calm - 0.01 in Fog , Rain Light Rain
5:12 AM 66.2 °F - 66.2 °F 100% 29.84 in 1.0 mi Calm Calm - 0.22 in Rain Heavy Rain
5:20 AM 66.2 °F - 66.2 °F 100% 29.84 in 3.0 mi Calm Calm - 0.23 in Rain Rain
5:56 AM 69.1 °F - 66.9 °F 93% 29.83 in 2.5 mi Calm Calm - 0.23 in   Overcast
6:04 AM 69.8 °F - 68.0 °F 94% 29.84 in 1.0 mi Calm Calm - N/A   Mist
6:56 AM 70.0 °F - 68.0 °F 93% 29.83 in 1.5 mi East 3.5 mph - 0.00 in   Overcast
7:27 AM 71.6 °F - 69.8 °F 94% 29.86 in 2.0 mi Calm Calm - 0.00 in   Overcast
7:54 AM 71.6 °F - 69.8 °F 94% 29.86 in 1.0 mi East 4.6 mph - 0.00 in   Mist
7:56 AM 71.1 °F - 70.0 °F 96% 29.85 in 1.0 mi Calm Calm - 0.00 in   Mist
8:24 AM 71.6 °F - 69.8 °F 94% 29.86 in 3.0 mi Calm Calm - 0.00 in Rain Light Rain
8:56 AM 73.0 °F - 71.1 °F 93% 29.86 in 6.0 mi Calm Calm - 0.00 in   Overcast
9:06 AM 73.4 °F - 71.6 °F 94% 29.87 in 7.0 mi East 3.5 mph - N/A   Unknown
9:36 AM 73.4 °F - 71.6 °F 94% 29.88 in 8.0 mi ESE 3.5 mph - N/A   Overcast
9:56 AM 73.9 °F - 72.0 °F 93% 29.86 in 8.0 mi Calm Calm - N/A   Overcast
10:11 AM 73.4 °F - 71.6 °F 94% 29.88 in 5.0 mi Calm Calm - 0.01 in   Overcast
10:31 AM 73.4 °F - 73.4 °F 100% 29.89 in 9.0 mi Variable 3.5 mph - 0.02 in   Overcast
10:39 AM 75.2 °F - 73.4 °F 94% 29.89 in - Variable 4.6 mph - 0.02 in   Unknown
10:56 AM 75.9 °F - 73.0 °F 91% 29.87 in 10.0 mi Calm Calm - 0.02 in   Unknown
11:11 AM 75.2 °F - 73.4 °F 94% 29.88 in 10.0 mi ESE 3.5 mph - N/A   Overcast
11:42 AM 77.0 °F - 73.4 °F 89% 29.88 in 10.0 mi Variable 3.5 mph - N/A   Overcast
11:56 AM 78.1 °F - 73.9 °F 87% 29.87 in 10.0 mi Calm Calm - N/A   Overcast
12:03 PM 78.8 °F - 73.4 °F 83% 29.88 in - SSE 3.5 mph - N/A   Unknown
1:56 PM 84.0 °F 90.2 °F 73.0 °F 69% 29.85 in 10.0 mi Calm Calm - N/A   Scattered Clouds
2:56 PM 82.9 °F 88.0 °F 72.0 °F 69% 29.84 in 10.0 mi Calm Calm - N/A   Partly Cloudy
4:56 PM 81.0 °F 85.8 °F 73.0 °F 77% 29.85 in 10.0 mi Calm Calm - N/A   Clear
5:56 PM 79.0 °F - 73.0 °F 82% 29.87 in 10.0 mi Variable 3.5 mph - 0.00 in   Mostly Cloudy
6:56 PM 78.1 °F - 71.1 °F 79% 29.89 in 10.0 mi Calm Calm - N/A   Scattered Clouds
7:56 PM 77.0 °F - 71.1 °F 82% 29.91 in 10.0 mi Variable 3.5 mph - N/A   Clear
8:56 PM 75.0 °F - 71.1 °F 87% 29.93 in 10.0 mi Calm Calm - N/A   Clear
10:56 PM 73.0 °F - 70.0 °F 90% 29.96 in 10.0 mi Calm Calm - N/A   Partly Cloudy
11:10 PM 73.4 °F - 71.6 °F 94% 29.98 in 10.0 mi Calm Calm - N/A   Mostly Cloudy
11:19 PM 73.4 °F - 71.6 °F 94% 29.98 in 10.0 mi Calm Calm - N/A   Overcast
11:56 PM 73.9 °F - 71.1 °F 91% 29.97 in 10.0 mi Calm Calm - N/A   Overcast